Time,TemperatureF,DewpointF,PressureIn,WindDirection,WindDirectionDegrees,WindSpeedMPH,WindSpeedGustMPH,Humidity,HourlyPrecipIn,Conditions,Clouds,dailyrainin,SolarRadiationWatts/m^2,SoftwareType,DateUTC
2013-01-18 00:02:00,34.4,33.4,30.33,South,182,1.0,3.0,96,0.00,,,0.00,0,Wunderground v.1.15,2013-01-18 08:02:00,
2013-01-18 00:07:00,34.4,33.4,30.33,South,182,0.0,3.0,96,0.00,,,0.00,0,Wunderground v.1.15,2013-01-18 08:07:00,
2013-01-18 00:12:00,34.5,33.5,30.33,SSW,204,0.0,3.0,96,0.00,,,0.00,0,Wunderground v.1.15,2013-01-18 08:12:00,
2013-01-18 00:17:00,34.5,33.5,30.33,SSW,198,1.0,3.0,96,0.00,,,0.00,0,Wunderground v.1.15,2013-01-18 08:17:00,
2013-01-18 00:22:00,34.5,33.5,30.33,South,179,1.0,4.0,96,0.00,,,0.00,0,Wunderground v.1.15,2013-01-18 08:22:00,
2013-01-18 00:27:00,34.5,33.5,30.32,South,174,2.0,4.0,96,0.00,,,0.00,0,Wunderground v.1.15,2013-01-18 08:27:00,
2013-01-18 00:32:00,34.4,33.4,30.32,SSW,209,3.0,3.0,96,0.00,,,0.00,0,Wunderground v.1.15,2013-01-18 08:32:00,
2013-01-18 00:37:00,34.4,33.4,30.32,South,184,2.0,4.0,96,0.00,,,0.00,0,Wunderground v.1.15,2013-01-18 08:37:00,
2013-01-18 00:42:00,34.3,33.3,30.32,South,169,1.0,4.0,96,0.00,,,0.00,0,Wunderground v.1.15,2013-01-18 08:42:00,
2013-01-18 00:47:00,34.3,33.3,30.32,SSE,157,2.0,4.0,96,0.00,,,0.00,0,Wunderground v.1.15,2013-01-18 08:47:00,
2013-01-18 00:52:00,34.3,33.3,30.32,SSE,157,2.0,3.0,96,0.00,,,0.00,0,Wunderground v.1.15,2013-01-18 08:52:00,
2013-01-18 00:57:00,34.3,33.3,30.32,SSE,158,0.0,3.0,96,0.00,,,0.00,0,Wunderground v.1.15,2013-01-18 08:57:00,
2013-01-18 01:02:00,34.3,33.3,30.32,SSE,161,2.0,2.0,96,0.00,,,0.00,0,Wunderground v.1.15,2013-01-18 09:02:00,
2013-01-18 01:07:00,34.4,33.4,30.32,SSE,161,0.0,2.0,96,0.00,,,0.00,0,Wunderground v.1.15,2013-01-18 09:07:00,
2013-01-18 01:12:00,34.4,33.4,30.32,SSE,161,0.0,2.0,96,0.00,,,0.00,0,Wunderground v.1.15,2013-01-18 09:12:00,
2013-01-18 01:17:00,34.4,33.4,30.32,SSE,161,0.0,2.0,96,0.00,,,0.00,0,Wunderground v.1.15,2013-01-18 09:17:00,
2013-01-18 01:22:00,34.4,33.4,30.32,SSW,200,0.0,2.0,96,0.00,,,0.00,0,Wunderground v.1.15,2013-01-18 09:22:00,
2013-01-18 01:27:00,34.4,33.4,30.32,SSW,198,1.0,2.0,96,0.00,,,0.00,0,Wunderground v.1.15,2013-01-18 09:27:00,
2013-01-18 01:32:00,34.4,33.4,30.32,South,188,2.0,2.0,96,0.00,,,0.00,0,Wunderground v.1.15,2013-01-18 09:32:00,
2013-01-18 01:37:00,34.5,33.5,30.32,South,191,0.0,3.0,96,0.00,,,0.00,0,Wunderground v.1.15,2013-01-18 09:37:00,
2013-01-18 01:42:00,34.6,33.8,30.32,South,183,0.0,3.0,97,0.00,,,0.00,0,Wunderground v.1.15,2013-01-18 09:42:00,
2013-01-18 01:47:00,34.7,33.7,30.32,South,191,1.0,3.0,96,0.00,,,0.00,0,Wunderground v.1.15,2013-01-18 09:47:00,
2013-01-18 01:52:00,34.7,33.9,30.32,South,188,1.0,2.0,97,0.00,,,0.00,0,Wunderground v.1.15,2013-01-18 09:52:00,
2013-01-18 01:57:00,34.6,33.6,30.32,South,183,1.0,3.0,96,0.00,,,0.00,0,Wunderground v.1.15,2013-01-18 09:57:00,
2013-01-18 02:02:00,34.6,33.6,30.32,South,182,1.0,2.0,96,0.00,,,0.00,0,Wunderground v.1.15,2013-01-18 10:02:00,
2013-01-18 02:07:00,34.6,33.6,30.32,South,182,0.0,2.0,96,0.00,,,0.00,0,Wunderground v.1.15,2013-01-18 10:07:00,
2013-01-18 02:12:00,34.6,33.6,30.32,SSW,194,0.0,3.0,96,0.00,,,0.00,0,Wunderground v.1.15,2013-01-18 10:12:00,
2013-01-18 02:17:00,34.5,33.5,30.32,South,184,1.0,3.0,96,0.00,,,0.00,0,Wunderground v.1.15,2013-01-18 10:17:00,
2013-01-18 02:22:00,34.5,33.5,30.32,South,188,1.0,3.0,96,0.00,,,0.00,0,Wunderground v.1.15,2013-01-18 10:22:00,
2013-01-18 02:27:00,34.4,33.6,30.32,South,178,0.0,3.0,97,0.00,,,0.00,0,Wunderground v.1.15,2013-01-18 10:27:00,
2013-01-18 02:32:00,34.3,33.5,30.32,South,171,3.0,3.0,97,0.00,,,0.00,0,Wunderground v.1.15,2013-01-18 10:32:00,
2013-01-18 02:37:00,34.4,33.6,30.32,South,176,1.0,3.0,97,0.00,,,0.00,0,Wunderground v.1.15,2013-01-18 10:37:00,
2013-01-18 02:42:00,34.2,33.4,30.32,South,173,2.0,2.0,97,0.00,,,0.00,0,Wunderground v.1.15,2013-01-18 10:42:00,
2013-01-18 02:47:00,34.1,33.1,30.32,South,172,2.0,3.0,96,0.00,,,0.00,0,Wunderground v.1.15,2013-01-18 10:47:00,
2013-01-18 02:52:00,34.1,33.1,30.32,South,172,1.0,2.0,96,0.00,,,0.00,0,Wunderground v.1.15,2013-01-18 10:52:00,
2013-01-18 02:57:00,34.1,33.3,30.32,South,176,0.0,3.0,97,0.00,,,0.00,0,Wunderground v.1.15,2013-01-18 10:57:00,
2013-01-18 03:02:00,34.1,33.3,30.32,South,176,0.0,1.0,97,0.00,,,0.00,0,Wunderground v.1.15,2013-01-18 11:02:00,
2013-01-18 03:07:00,34.1,33.3,30.32,South,176,0.0,1.0,97,0.00,,,0.00,0,Wunderground v.1.15,2013-01-18 11:07:00,
2013-01-18 03:11:00,34.1,33.3,30.32,South,176,0.0,0.0,97,0.00,,,0.00,0,Wunderground v.1.15,2013-01-18 11:11:00,
2013-01-18 03:16:00,34.1,33.3,30.32,South,176,0.0,2.0,97,0.00,,,0.00,0,Wunderground v.1.15,2013-01-18 11:16:00,
2013-01-18 03:21:00,34.2,33.4,30.32,South,176,2.0,2.0,97,0.00,,,0.00,0,Wunderground v.1.15,2013-01-18 11:21:00,
2013-01-18 03:26:00,34.2,33.4,30.32,South,176,0.0,2.0,97,0.00,,,0.00,0,Wunderground v.1.15,2013-01-18 11:26:00,
2013-01-18 03:31:00,34.3,33.5,30.32,South,176,1.0,2.0,97,0.00,,,0.00,0,Wunderground v.1.15,2013-01-18 11:31:00,
2013-01-18 03:36:00,34.3,33.5,30.32,SSE,151,2.0,3.0,97,0.00,,,0.00,0,Wunderground v.1.15,2013-01-18 11:36:00,
2013-01-18 03:41:00,34.2,33.4,30.32,SSE,156,0.0,2.0,97,0.00,,,0.00,0,Wunderground v.1.15,2013-01-18 11:41:00,
2013-01-18 03:46:00,34.2,33.4,30.31,SSE,156,0.0,2.0,97,0.00,,,0.00,0,Wunderground v.1.15,2013-01-18 11:46:00,
2013-01-18 03:51:00,34.2,33.4,30.31,SSE,156,0.0,1.0,97,0.00,,,0.00,0,Wunderground v.1.15,2013-01-18 11:51:00,
2013-01-18 03:56:00,34.2,33.4,30.31,South,170,1.0,3.0,97,0.00,,,0.00,0,Wunderground v.1.15,2013-01-18 11:56:00,
2013-01-18 04:01:00,34.2,33.4,30.30,WSW,247,2.0,4.0,97,0.00,,,0.00,0,Wunderground v.1.15,2013-01-18 12:01:00,
2013-01-18 04:06:00,34.2,33.4,30.30,WSW,250,2.0,4.0,97,0.00,,,0.00,0,Wunderground v.1.15,2013-01-18 12:06:00,
2013-01-18 04:11:00,34.3,33.5,30.30,WSW,250,1.0,2.0,97,0.00,,,0.00,0,Wunderground v.1.15,2013-01-18 12:11:00,
2013-01-18 04:16:00,34.3,33.5,30.30,WSW,250,1.0,2.0,97,0.00,,,0.00,0,Wunderground v.1.15,2013-01-18 12:16:00,
2013-01-18 04:21:00,34.3,33.5,30.30,WSW,250,1.0,2.0,97,0.00,,,0.00,0,Wunderground v.1.15,2013-01-18 12:21:00,
2013-01-18 04:26:00,34.2,33.4,30.30,WSW,250,1.0,2.0,97,0.00,,,0.00,0,Wunderground v.1.15,2013-01-18 12:26:00,
2013-01-18 04:31:00,34.2,33.4,30.30,WSW,250,1.0,2.0,97,0.00,,,0.00,0,Wunderground v.1.15,2013-01-18 12:31:00,
2013-01-18 04:36:00,34.2,33.4,30.30,WSW,250,0.0,3.0,97,0.00,,,0.00,0,Wunderground v.1.15,2013-01-18 12:36:00,
2013-01-18 04:41:00,34.2,33.4,30.30,WSW,249,2.0,2.0,97,0.00,,,0.00,0,Wunderground v.1.15,2013-01-18 12:41:00,
2013-01-18 04:46:00,34.2,33.4,30.30,SW,235,1.0,2.0,97,0.00,,,0.00,0,Wunderground v.1.15,2013-01-18 12:46:00,
2013-01-18 04:51:00,34.2,33.4,30.29,WSW,239,2.0,2.0,97,0.00,,,0.00,0,Wunderground v.1.15,2013-01-18 12:51:00,
2013-01-18 04:56:00,34.2,33.4,30.30,WSW,240,0.0,2.0,97,0.00,,,0.00,0,Wunderground v.1.15,2013-01-18 12:56:00,
2013-01-18 05:01:00,34.2,33.4,30.30,WSW,240,0.0,1.0,97,0.00,,,0.00,0,Wunderground v.1.15,2013-01-18 13:01:00,
2013-01-18 05:06:00,34.2,33.4,30.30,SW,234,1.0,2.0,97,0.00,,,0.00,0,Wunderground v.1.15,2013-01-18 13:06:00,
2013-01-18 05:11:00,34.2,33.4,30.29,SW,234,1.0,1.0,97,0.00,,,0.00,0,Wunderground v.1.15,2013-01-18 13:11:00,
2013-01-18 05:16:00,34.2,33.4,30.29,SW,233,0.0,2.0,97,0.00,,,0.00,0,Wunderground v.1.15,2013-01-18 13:16:00,
2013-01-18 05:21:00,34.2,33.4,30.29,South,190,1.0,3.0,97,0.00,,,0.00,0,Wunderground v.1.15,2013-01-18 13:21:00,
2013-01-18 05:26:00,34.2,33.4,30.30,South,190,1.0,3.0,97,0.00,,,0.00,0,Wunderground v.1.15,2013-01-18 13:26:00,
2013-01-18 05:31:00,34.2,33.4,30.30,SSE,167,2.0,3.0,97,0.00,,,0.00,0,Wunderground v.1.15,2013-01-18 13:31:00,
2013-01-18 05:36:00,34.2,33.4,30.30,SSE,160,2.0,4.0,97,0.00,,,0.00,0,Wunderground v.1.15,2013-01-18 13:36:00,
2013-01-18 05:41:00,34.2,33.4,30.30,SE,144,1.0,3.0,97,0.00,,,0.00,0,Wunderground v.1.15,2013-01-18 13:41:00,
2013-01-18 05:46:00,34.2,33.4,30.30,SE,144,1.0,3.0,97,0.00,,,0.00,0,Wunderground v.1.15,2013-01-18 13:46:00,
2013-01-18 05:51:00,34.2,33.4,30.30,SE,144,1.0,3.0,97,0.00,,,0.00,0,Wunderground v.1.15,2013-01-18 13:51:00,
2013-01-18 05:56:00,34.2,33.4,30.30,SE,138,1.0,3.0,97,0.00,,,0.00,0,Wunderground v.1.15,2013-01-18 13:56:00,
2013-01-18 06:01:00,34.2,33.4,30.30,SE,137,1.0,2.0,97,0.00,,,0.00,0,Wunderground v.1.15,2013-01-18 14:01:00,
2013-01-18 06:06:00,34.2,33.4,30.30,SE,137,1.0,2.0,97,0.00,,,0.00,0,Wunderground v.1.15,2013-01-18 14:06:00,
2013-01-18 06:11:00,34.2,33.4,30.30,SE,137,0.0,3.0,97,0.00,,,0.00,0,Wunderground v.1.15,2013-01-18 14:11:00,
2013-01-18 06:16:00,34.2,33.4,30.30,SE,133,2.0,3.0,97,0.00,,,0.00,0,Wunderground v.1.15,2013-01-18 14:16:00,
2013-01-18 06:21:00,34.3,33.5,30.30,SE,133,0.0,2.0,97,0.00,,,0.00,0,Wunderground v.1.15,2013-01-18 14:21:00,
2013-01-18 06:26:00,34.3,33.5,30.30,SE,133,1.0,2.0,97,0.00,,,0.00,0,Wunderground v.1.15,2013-01-18 14:26:00,
2013-01-18 06:31:00,34.3,33.5,30.30,SE,133,0.0,1.0,97,0.00,,,0.00,0,Wunderground v.1.15,2013-01-18 14:31:00,
2013-01-18 06:36:00,34.4,33.6,30.30,SE,134,0.0,2.0,97,0.00,,,0.00,0,Wunderground v.1.15,2013-01-18 14:36:00,
2013-01-18 06:41:00,34.4,33.6,30.30,SE,133,0.0,1.0,97,0.00,,,0.00,0,Wunderground v.1.15,2013-01-18 14:41:00,
2013-01-18 06:46:00,34.5,33.7,30.30,SE,133,0.0,1.0,97,0.00,,,0.00,0,Wunderground v.1.15,2013-01-18 14:46:00,
2013-01-18 06:51:00,34.6,33.8,30.29,SSE,154,1.0,2.0,97,0.00,,,0.00,0,Wunderground v.1.15,2013-01-18 14:51:00,
2013-01-18 06:56:00,34.7,33.9,30.29,SSE,159,1.0,3.0,97,0.00,,,0.00,0,Wunderground v.1.15,2013-01-18 14:56:00,
2013-01-18 07:01:00,34.6,33.8,30.29,SSE,159,1.0,2.0,97,0.00,,,0.00,0,Wunderground v.1.15,2013-01-18 15:01:00,
2013-01-18 07:06:00,34.6,33.8,30.29,SSE,160,0.0,3.0,97,0.00,,,0.00,0,Wunderground v.1.15,2013-01-18 15:06:00,
2013-01-18 07:11:00,34.5,33.7,30.29,SSE,166,4.0,4.0,97,0.00,,,0.00,0,Wunderground v.1.15,2013-01-18 15:11:00,
2013-01-18 07:16:00,34.5,33.7,30.29,SSE,167,0.0,4.0,97,0.00,,,0.00,0,Wunderground v.1.15,2013-01-18 15:16:00,
2013-01-18 07:21:00,34.5,33.7,30.29,SSE,167,2.0,2.0,97,0.00,,,0.00,0,Wunderground v.1.15,2013-01-18 15:21:00,
2013-01-18 07:26:00,34.5,33.7,30.29,South,176,1.0,3.0,97,0.00,,,0.00,0,Wunderground v.1.15,2013-01-18 15:26:00,
2013-01-18 07:31:00,34.5,33.7,30.29,SW,222,0.0,2.0,97,0.00,,,0.00,0,Wunderground v.1.15,2013-01-18 15:31:00,
2013-01-18 07:36:00,34.5,33.7,30.30,SSW,213,3.0,3.0,97,0.00,,,0.00,0,Wunderground v.1.15,2013-01-18 15:36:00,
2013-01-18 07:41:00,34.6,33.8,30.30,SSW,213,0.0,2.0,97,0.00,,,0.00,0,Wunderground v.1.15,2013-01-18 15:41:00,
2013-01-18 07:46:00,34.7,33.9,30.30,SW,227,2.0,4.0,97,0.00,,,0.00,0,Wunderground v.1.15,2013-01-18 15:46:00,
2013-01-18 07:51:00,34.7,33.9,30.29,SW,227,1.0,1.0,97,0.00,,,0.00,0,Wunderground v.1.15,2013-01-18 15:51:00,
2013-01-18 07:56:00,34.7,33.9,30.30,SW,226,2.0,4.0,97,0.00,,,0.00,0,Wunderground v.1.15,2013-01-18 15:56:00,
2013-01-18 08:01:00,34.7,33.9,30.30,SW,226,0.0,3.0,97,0.00,,,0.00,0,Wunderground v.1.15,2013-01-18 16:01:00,
2013-01-18 08:06:00,34.7,33.9,30.30,SW,226,0.0,3.0,97,0.00,,,0.00,0,Wunderground v.1.15,2013-01-18 16:06:00,
2013-01-18 08:11:00,34.7,33.9,30.30,SW,226,0.0,0.0,97,0.00,,,0.00,5,Wunderground v.1.15,2013-01-18 16:11:00,
2013-01-18 08:16:00,34.8,34.0,30.30,SW,226,0.0,1.0,97,0.00,,,0.00,5,Wunderground v.1.15,2013-01-18 16:16:00,
2013-01-18 08:21:00,34.8,34.0,30.30,SW,226,0.0,1.0,97,0.00,,,0.00,7,Wunderground v.1.15,2013-01-18 16:21:00,
2013-01-18 08:26:00,34.8,34.0,30.31,WSW,243,1.0,3.0,97,0.00,,,0.00,12,Wunderground v.1.15,2013-01-18 16:26:00,
2013-01-18 08:31:00,34.8,34.0,30.31,WSW,244,0.0,2.0,97,0.00,,,0.00,12,Wunderground v.1.15,2013-01-18 16:31:00,
2013-01-18 08:36:00,34.9,34.1,30.31,WSW,244,0.0,2.0,97,0.00,,,0.00,12,Wunderground v.1.15,2013-01-18 16:36:00,
2013-01-18 08:41:00,35.0,34.2,30.31,WSW,244,0.0,0.0,97,0.00,,,0.00,19,Wunderground v.1.15,2013-01-18 16:41:00,
2013-01-18 08:46:00,35.0,34.2,30.31,WSW,244,0.0,2.0,97,0.00,,,0.00,21,Wunderground v.1.15,2013-01-18 16:46:00,
2013-01-18 08:51:00,35.1,34.3,30.31,WSW,244,0.0,1.0,97,0.00,,,0.00,25,Wunderground v.1.15,2013-01-18 16:51:00,
2013-01-18 08:56:00,35.2,34.4,30.31,WSW,244,0.0,1.0,97,0.00,,,0.00,23,Wunderground v.1.15,2013-01-18 16:56:00,
2013-01-18 09:01:00,35.2,34.4,30.32,SW,224,1.0,2.0,97,0.00,,,0.00,25,Wunderground v.1.15,2013-01-18 17:01:00,
2013-01-18 09:06:00,35.2,34.4,30.32,SW,223,0.0,2.0,97,0.00,,,0.00,30,Wunderground v.1.15,2013-01-18 17:06:00,
2013-01-18 09:11:00,35.2,34.4,30.32,SW,223,0.0,2.0,97,0.00,,,0.00,32,Wunderground v.1.15,2013-01-18 17:11:00,
2013-01-18 09:16:00,35.3,34.5,30.33,SW,221,0.0,3.0,97,0.00,,,0.00,35,Wunderground v.1.15,2013-01-18 17:16:00,
2013-01-18 09:21:00,35.3,34.5,30.33,SW,219,0.0,1.0,97,0.00,,,0.00,40,Wunderground v.1.15,2013-01-18 17:21:00,
2013-01-18 09:26:00,35.3,34.5,30.33,SW,219,0.0,2.0,97,0.00,,,0.00,40,Wunderground v.1.15,2013-01-18 17:26:00,
2013-01-18 09:31:00,35.3,34.5,30.33,SW,219,0.0,1.0,97,0.00,,,0.00,49,Wunderground v.1.15,2013-01-18 17:31:00,
2013-01-18 09:36:00,35.4,34.6,30.33,SW,219,1.0,2.0,97,0.00,,,0.00,60,Wunderground v.1.15,2013-01-18 17:36:00,
2013-01-18 09:41:00,35.4,34.6,30.33,SW,232,1.0,2.0,97,0.00,,,0.00,53,Wunderground v.1.15,2013-01-18 17:41:00,
2013-01-18 09:46:00,35.4,34.6,30.33,SW,234,1.0,3.0,97,0.00,,,0.00,51,Wunderground v.1.15,2013-01-18 17:46:00,
2013-01-18 09:51:00,35.5,34.7,30.33,SW,234,0.0,3.0,97,0.00,,,0.00,49,Wunderground v.1.15,2013-01-18 17:51:00,
2013-01-18 09:56:00,35.7,34.9,30.33,SW,234,0.0,3.0,97,0.00,,,0.00,47,Wunderground v.1.15,2013-01-18 17:56:00,
2013-01-18 10:01:00,35.9,35.1,30.33,SW,234,2.0,2.0,97,0.00,,,0.00,46,Wunderground v.1.15,2013-01-18 18:01:00,
2013-01-18 10:06:00,35.9,35.1,30.33,SW,234,2.0,3.0,97,0.00,,,0.00,51,Wunderground v.1.15,2013-01-18 18:06:00,
2013-01-18 10:11:00,36.0,35.2,30.33,SW,234,1.0,2.0,97,0.00,,,0.00,58,Wunderground v.1.15,2013-01-18 18:11:00,
2013-01-18 10:16:00,36.0,35.2,30.33,SW,234,1.0,2.0,97,0.00,,,0.00,62,Wunderground v.1.15,2013-01-18 18:16:00,
2013-01-18 10:21:00,36.0,35.2,30.33,SW,234,1.0,2.0,97,0.00,,,0.00,60,Wunderground v.1.15,2013-01-18 18:21:00,
2013-01-18 10:26:00,36.1,35.3,30.33,SW,234,3.0,3.0,97,0.00,,,0.00,67,Wunderground v.1.15,2013-01-18 18:26:00,
2013-01-18 10:31:00,36.3,35.5,30.33,SW,222,1.0,2.0,97,0.00,,,0.00,67,Wunderground v.1.15,2013-01-18 18:31:00,
2013-01-18 10:36:00,36.5,36.0,30.33,SW,222,1.0,3.0,98,0.00,,,0.00,60,Wunderground v.1.15,2013-01-18 18:36:00,
2013-01-18 10:41:00,36.6,36.1,30.33,SSW,203,2.0,2.0,98,0.00,,,0.00,60,Wunderground v.1.15,2013-01-18 18:41:00,
2013-01-18 10:46:00,36.4,35.9,30.33,WSW,240,1.0,4.0,98,0.00,,,0.00,56,Wunderground v.1.15,2013-01-18 18:46:00,
2013-01-18 10:51:00,36.2,35.4,30.33,WSW,240,0.0,1.0,97,0.00,,,0.00,58,Wunderground v.1.15,2013-01-18 18:51:00,
2013-01-18 10:56:00,36.3,35.5,30.33,SW,216,3.0,3.0,97,0.00,,,0.00,70,Wunderground v.1.15,2013-01-18 18:56:00,
2013-01-18 11:01:00,36.4,35.6,30.33,SSW,201,0.0,2.0,97,0.00,,,0.00,79,Wunderground v.1.15,2013-01-18 19:01:00,
2013-01-18 11:06:00,36.5,35.7,30.33,SSW,202,0.0,3.0,97,0.00,,,0.00,69,Wunderground v.1.15,2013-01-18 19:06:00,
2013-01-18 11:11:00,36.5,35.7,30.33,SSW,200,0.0,3.0,97,0.00,,,0.00,77,Wunderground v.1.15,2013-01-18 19:11:00,
2013-01-18 11:16:00,36.5,35.7,30.33,SSW,198,2.0,4.0,97,0.00,,,0.00,86,Wunderground v.1.15,2013-01-18 19:16:00,
2013-01-18 11:21:00,36.6,35.8,30.33,SSW,198,1.0,2.0,97,0.00,,,0.00,77,Wunderground v.1.15,2013-01-18 19:21:00,
2013-01-18 11:26:00,36.7,35.9,30.32,SSW,198,0.0,3.0,97,0.00,,,0.00,90,Wunderground v.1.15,2013-01-18 19:26:00,
2013-01-18 11:31:00,36.6,35.8,30.32,SW,217,0.0,3.0,97,0.00,,,0.00,113,Wunderground v.1.15,2013-01-18 19:31:00,
2013-01-18 11:36:00,36.9,36.1,30.32,SW,217,0.0,3.0,97,0.00,,,0.00,81,Wunderground v.1.15,2013-01-18 19:36:00,
2013-01-18 11:41:00,36.7,35.9,30.32,SW,232,2.0,4.0,97,0.00,,,0.00,86,Wunderground v.1.15,2013-01-18 19:41:00,
2013-01-18 11:46:00,37.0,36.2,30.32,SW,232,0.0,4.0,97,0.00,,,0.00,88,Wunderground v.1.15,2013-01-18 19:46:00,
2013-01-18 11:51:00,37.0,36.2,30.32,SW,229,1.0,2.0,97,0.00,,,0.00,95,Wunderground v.1.15,2013-01-18 19:51:00,
2013-01-18 11:56:00,36.9,36.1,30.32,SW,229,1.0,2.0,97,0.00,,,0.00,93,Wunderground v.1.15,2013-01-18 19:56:00,
2013-01-18 12:01:00,37.2,36.4,30.32,SW,218,0.0,3.0,97,0.00,,,0.00,83,Wunderground v.1.15,2013-01-18 20:01:00,
2013-01-18 12:06:00,37.5,36.7,30.32,SW,218,0.0,3.0,97,0.00,,,0.00,90,Wunderground v.1.15,2013-01-18 20:06:00,
2013-01-18 12:11:00,37.8,36.8,30.32,SW,218,0.0,2.0,96,0.00,,,0.00,95,Wunderground v.1.15,2013-01-18 20:11:00,
2013-01-18 12:16:00,38.0,37.0,30.32,SW,218,0.0,2.0,96,0.00,,,0.00,86,Wunderground v.1.15,2013-01-18 20:16:00,
2013-01-18 12:21:00,37.9,36.6,30.32,SW,218,0.0,2.0,95,0.00,,,0.00,79,Wunderground v.1.15,2013-01-18 20:21:00,
2013-01-18 12:26:00,38.4,37.1,30.33,SW,218,1.0,2.0,95,0.00,,,0.00,81,Wunderground v.1.15,2013-01-18 20:26:00,
2013-01-18 12:31:00,38.3,36.7,30.33,SW,217,0.0,0.0,94,0.00,,,0.00,86,Wunderground v.1.15,2013-01-18 20:31:00,
2013-01-18 12:36:00,38.6,37.0,30.33,WSW,246,1.0,3.0,94,0.00,,,0.00,70,Wunderground v.1.15,2013-01-18 20:36:00,
2013-01-18 12:41:00,38.8,37.2,30.33,NW,321,3.0,4.0,94,0.00,,,0.00,76,Wunderground v.1.15,2013-01-18 20:41:00,
2013-01-18 12:46:00,38.7,36.9,30.32,North,350,2.0,5.0,93,0.00,,,0.00,86,Wunderground v.1.15,2013-01-18 20:46:00,
2013-01-18 12:51:00,38.6,36.8,30.33,ENE,70,3.0,3.0,93,0.00,,,0.00,79,Wunderground v.1.15,2013-01-18 20:51:00,
2013-01-18 12:56:00,38.5,36.7,30.32,ENE,76,1.0,3.0,93,0.00,,,0.00,81,Wunderground v.1.15,2013-01-18 20:56:00,
2013-01-18 13:01:00,38.5,36.7,30.32,ENE,74,2.0,3.0,93,0.00,,,0.00,72,Wunderground v.1.15,2013-01-18 21:01:00,
2013-01-18 13:06:00,38.6,36.8,30.32,ENE,69,2.0,3.0,93,0.00,,,0.00,67,Wunderground v.1.15,2013-01-18 21:06:00,
2013-01-18 13:11:00,38.7,36.9,30.32,NE,49,0.0,2.0,93,0.00,,,0.00,67,Wunderground v.1.15,2013-01-18 21:11:00,
2013-01-18 13:16:00,38.8,36.7,30.32,ENE,78,3.0,3.0,92,0.00,,,0.00,88,Wunderground v.1.15,2013-01-18 21:16:00,
2013-01-18 13:21:00,38.6,36.5,30.32,NNE,12,0.0,4.0,92,0.00,,,0.00,98,Wunderground v.1.15,2013-01-18 21:21:00,
2013-01-18 13:26:00,38.5,36.4,30.32,NNE,29,1.0,4.0,92,0.00,,,0.00,95,Wunderground v.1.15,2013-01-18 21:26:00,
2013-01-18 13:31:00,38.9,36.5,30.32,NNE,13,0.0,4.0,91,0.00,,,0.00,104,Wunderground v.1.15,2013-01-18 21:31:00,
2013-01-18 13:36:00,38.9,36.5,30.32,NNE,15,1.0,4.0,91,0.00,,,0.00,86,Wunderground v.1.15,2013-01-18 21:36:00,
2013-01-18 13:41:00,39.0,36.6,30.32,North,355,2.0,2.0,91,0.00,,,0.00,90,Wunderground v.1.15,2013-01-18 21:41:00,
2013-01-18 13:46:00,38.8,36.1,30.32,ESE,103,3.0,5.0,90,0.00,,,0.00,95,Wunderground v.1.15,2013-01-18 21:46:00,
2013-01-18 13:51:00,38.6,36.2,30.32,North,9,6.0,6.0,91,0.00,,,0.00,86,Wunderground v.1.15,2013-01-18 21:51:00,
2013-01-18 13:56:00,38.8,36.1,30.32,NE,38,0.0,6.0,90,0.00,,,0.00,74,Wunderground v.1.15,2013-01-18 21:56:00,
2013-01-18 14:01:00,38.8,36.1,30.32,NE,46,2.0,3.0,90,0.00,,,0.00,69,Wunderground v.1.15,2013-01-18 22:01:00,
2013-01-18 14:06:00,38.8,36.1,30.32,North,9,3.0,6.0,90,0.00,,,0.00,83,Wunderground v.1.15,2013-01-18 22:06:00,
2013-01-18 14:11:00,38.7,36.0,30.32,NNE,25,1.0,2.0,90,0.00,,,0.00,77,Wunderground v.1.15,2013-01-18 22:11:00,
2013-01-18 14:16:00,38.6,36.2,30.32,ENE,57,0.0,3.0,91,0.00,,,0.00,83,Wunderground v.1.15,2013-01-18 22:16:00,
2013-01-18 14:21:00,38.8,36.4,30.32,NE,36,1.0,3.0,91,0.00,,,0.00,76,Wunderground v.1.15,2013-01-18 22:21:00,
2013-01-18 14:26:00,38.4,35.7,30.32,East,86,2.0,6.0,90,0.00,,,0.00,88,Wunderground v.1.15,2013-01-18 22:26:00,
2013-01-18 14:31:00,38.3,35.9,30.32,East,88,3.0,3.0,91,0.00,,,0.00,86,Wunderground v.1.15,2013-01-18 22:31:00,
2013-01-18 14:36:00,38.5,36.1,30.32,East,88,1.0,3.0,91,0.00,,,0.00,69,Wunderground v.1.15,2013-01-18 22:36:00,
2013-01-18 14:41:00,38.7,36.0,30.32,ENE,76,0.0,2.0,90,0.00,,,0.00,37,Wunderground v.1.15,2013-01-18 22:41:00,
2013-01-18 14:46:00,38.6,35.9,30.32,WNW,298,2.0,3.0,90,0.00,,,0.00,39,Wunderground v.1.15,2013-01-18 22:46:00,
2013-01-18 14:51:00,38.5,35.8,30.32,North,9,4.0,4.0,90,0.00,,,0.00,53,Wunderground v.1.15,2013-01-18 22:51:00,
2013-01-18 14:56:00,38.5,35.8,30.32,NNE,17,3.0,6.0,90,0.00,,,0.00,28,Wunderground v.1.15,2013-01-18 22:56:00,
2013-01-18 15:01:00,38.5,35.8,30.32,NNW,346,0.0,2.0,90,0.00,,,0.00,26,Wunderground v.1.15,2013-01-18 23:01:00,
2013-01-18 15:06:00,38.5,35.8,30.32,NNW,346,2.0,3.0,90,0.00,,,0.00,33,Wunderground v.1.15,2013-01-18 23:06:00,
2013-01-18 15:11:00,38.4,35.4,30.32,NNW,346,1.0,2.0,89,0.00,,,0.00,49,Wunderground v.1.15,2013-01-18 23:11:00,
2013-01-18 15:16:00,38.4,35.7,30.32,North,9,2.0,3.0,90,0.00,,,0.00,42,Wunderground v.1.15,2013-01-18 23:16:00,
2013-01-18 15:21:00,38.4,35.7,30.32,North,9,0.0,2.0,90,0.00,,,0.00,39,Wunderground v.1.15,2013-01-18 23:21:00,
2013-01-18 15:26:00,38.4,35.7,30.33,North,9,1.0,2.0,90,0.00,,,0.00,42,Wunderground v.1.15,2013-01-18 23:26:00,
2013-01-18 15:31:00,38.4,35.7,30.33,NNE,15,2.0,3.0,90,0.00,,,0.00,74,Wunderground v.1.15,2013-01-18 23:31:00,
2013-01-18 15:36:00,38.5,35.8,30.33,NNE,15,0.0,3.0,90,0.00,,,0.00,47,Wunderground v.1.15,2013-01-18 23:36:00,
2013-01-18 15:41:00,38.5,35.8,30.32,NNE,15,1.0,2.0,90,0.00,,,0.00,62,Wunderground v.1.15,2013-01-18 23:41:00,
2013-01-18 15:46:00,38.4,35.7,30.32,NE,44,3.0,4.0,90,0.00,,,0.00,39,Wunderground v.1.15,2013-01-18 23:46:00,
2013-01-18 15:51:00,38.2,35.2,30.32,NE,36,1.0,2.0,89,0.00,,,0.00,35,Wunderground v.1.15,2013-01-18 23:51:00,
2013-01-18 15:56:00,38.0,35.3,30.32,NNE,32,1.0,3.0,90,0.00,,,0.00,18,Wunderground v.1.15,2013-01-18 23:56:00,
2013-01-18 16:01:00,38.0,35.3,30.32,NNE,32,0.0,2.0,90,0.00,,,0.00,23,Wunderground v.1.15,2013-01-19 00:01:00,
2013-01-18 16:06:00,37.9,35.2,30.33,NNE,32,2.0,2.0,90,0.00,,,0.00,11,Wunderground v.1.15,2013-01-19 00:06:00,
2013-01-18 16:11:00,37.9,35.2,30.33,NNE,32,0.0,1.0,90,0.00,,,0.00,7,Wunderground v.1.15,2013-01-19 00:11:00,
2013-01-18 16:16:00,37.8,35.1,30.33,ENE,58,2.0,4.0,90,0.00,,,0.00,7,Wunderground v.1.15,2013-01-19 00:16:00,
2013-01-18 16:21:00,37.7,35.0,30.33,NNE,33,2.0,2.0,90,0.00,,,0.00,7,Wunderground v.1.15,2013-01-19 00:21:00,
2013-01-18 16:26:00,37.5,34.8,30.33,ENE,61,2.0,4.0,90,0.00,,,0.00,7,Wunderground v.1.15,2013-01-19 00:26:00,
2013-01-18 16:31:00,37.4,34.7,30.32,North,5,0.0,3.0,90,0.00,,,0.00,7,Wunderground v.1.15,2013-01-19 00:31:00,
2013-01-18 16:36:00,37.1,34.7,30.33,NE,49,2.0,5.0,91,0.00,,,0.00,5,Wunderground v.1.15,2013-01-19 00:36:00,
2013-01-18 16:41:00,37.0,34.6,30.33,NE,37,2.0,2.0,91,0.00,,,0.00,0,Wunderground v.1.15,2013-01-19 00:41:00,
2013-01-18 16:46:00,36.9,34.5,30.33,NE,38,3.0,4.0,91,0.00,,,0.00,0,Wunderground v.1.15,2013-01-19 00:46:00,
2013-01-18 16:51:00,36.8,34.4,30.33,NNE,15,3.0,5.0,91,0.00,,,0.00,0,Wunderground v.1.15,2013-01-19 00:51:00,
2013-01-18 16:56:00,36.6,34.2,30.33,North,5,2.0,5.0,91,0.00,,,0.00,0,Wunderground v.1.15,2013-01-19 00:56:00,
2013-01-18 17:01:00,36.4,34.0,30.33,NNE,28,4.0,4.0,91,0.00,,,0.00,0,Wunderground v.1.15,2013-01-19 01:01:00,
2013-01-18 17:06:00,36.4,34.3,30.33,North,5,1.0,5.0,92,0.00,,,0.00,0,Wunderground v.1.15,2013-01-19 01:06:00,
2013-01-18 17:11:00,36.2,34.1,30.33,NE,35,2.0,2.0,92,0.00,,,0.00,0,Wunderground v.1.15,2013-01-19 01:11:00,
2013-01-18 17:16:00,36.1,34.0,30.33,ENE,63,2.0,4.0,92,0.00,,,0.00,0,Wunderground v.1.15,2013-01-19 01:16:00,
2013-01-18 17:21:00,36.1,34.0,30.33,NNE,32,1.0,3.0,92,0.00,,,0.00,0,Wunderground v.1.15,2013-01-19 01:21:00,
2013-01-18 17:26:00,36.0,33.9,30.33,NE,42,3.0,3.0,92,0.00,,,0.00,0,Wunderground v.1.15,2013-01-19 01:26:00,
2013-01-18 17:31:00,35.9,33.8,30.33,NNE,33,0.0,1.0,92,0.00,,,0.00,0,Wunderground v.1.15,2013-01-19 01:31:00,
2013-01-18 17:35:00,35.9,33.8,30.33,NNE,30,1.0,3.0,92,0.00,,,0.00,0,Wunderground v.1.15,2013-01-19 01:35:00,
2013-01-18 17:41:00,35.8,33.7,30.33,NNE,30,0.0,1.0,92,0.00,,,0.00,0,Wunderground v.1.15,2013-01-19 01:41:00,
2013-01-18 17:45:00,35.7,33.6,30.33,NNE,30,0.0,1.0,92,0.00,,,0.00,0,Wunderground v.1.15,2013-01-19 01:45:00,
2013-01-18 17:50:00,35.7,33.6,30.33,NNE,30,0.0,1.0,92,0.00,,,0.00,0,Wunderground v.1.15,2013-01-19 01:50:00,
2013-01-18 17:55:00,35.5,33.4,30.33,NNE,30,0.0,2.0,92,0.00,,,0.00,0,Wunderground v.1.15,2013-01-19 01:55:00,
2013-01-18 18:00:00,35.4,33.3,30.33,NNE,29,0.0,2.0,92,0.00,,,0.00,0,Wunderground v.1.15,2013-01-19 02:00:00,
2013-01-18 18:05:00,35.3,33.2,30.33,NNE,29,0.0,2.0,92,0.00,,,0.00,0,Wunderground v.1.15,2013-01-19 02:05:00,
2013-01-18 18:10:00,35.2,33.1,30.33,NNE,29,1.0,2.0,92,0.00,,,0.00,0,Wunderground v.1.15,2013-01-19 02:10:00,
2013-01-18 18:15:00,35.2,33.4,30.33,NNE,29,0.0,2.0,93,0.00,,,0.00,0,Wunderground v.1.15,2013-01-19 02:15:00,
2013-01-18 18:20:00,35.2,33.4,30.33,ENE,63,3.0,4.0,93,0.00,,,0.00,0,Wunderground v.1.15,2013-01-19 02:20:00,
2013-01-18 18:25:00,35.1,33.3,30.33,ENE,69,2.0,4.0,93,0.00,,,0.00,0,Wunderground v.1.15,2013-01-19 02:25:00,
2013-01-18 18:30:00,34.8,33.0,30.33,ENE,73,2.0,3.0,93,0.00,,,0.00,0,Wunderground v.1.15,2013-01-19 02:30:00,
2013-01-18 18:35:00,34.7,32.9,30.34,ENE,73,2.0,3.0,93,0.00,,,0.00,0,Wunderground v.1.15,2013-01-19 02:35:00,
2013-01-18 18:40:00,34.7,32.9,30.34,ENE,78,0.0,3.0,93,0.00,,,0.00,0,Wunderground v.1.15,2013-01-19 02:40:00,
2013-01-18 18:45:00,34.6,32.8,30.34,ENE,78,0.0,3.0,93,0.00,,,0.00,0,Wunderground v.1.15,2013-01-19 02:45:00,
2013-01-18 18:50:00,34.5,32.7,30.34,ENE,69,1.0,3.0,93,0.00,,,0.00,0,Wunderground v.1.15,2013-01-19 02:50:00,
2013-01-18 18:55:00,34.4,32.6,30.34,East,92,2.0,6.0,93,0.00,,,0.00,0,Wunderground v.1.15,2013-01-19 02:55:00,
2013-01-18 19:00:00,34.3,32.8,30.34,East,92,1.0,2.0,94,0.00,,,0.00,0,Wunderground v.1.15,2013-01-19 03:00:00,
2013-01-18 19:05:00,34.2,32.4,30.34,East,92,0.0,3.0,93,0.00,,,0.00,0,Wunderground v.1.15,2013-01-19 03:05:00,
2013-01-18 19:10:00,34.1,32.3,30.34,East,92,0.0,1.0,93,0.00,,,0.00,0,Wunderground v.1.15,2013-01-19 03:10:00,
2013-01-18 19:15:00,34.1,32.3,30.34,NE,44,0.0,3.0,93,0.00,,,0.00,0,Wunderground v.1.15,2013-01-19 03:15:00,
2013-01-18 19:20:00,34.0,32.5,30.34,NNW,346,0.0,2.0,94,0.00,,,0.00,0,Wunderground v.1.15,2013-01-19 03:20:00,
2013-01-18 19:25:00,33.9,32.4,30.34,NNW,346,0.0,2.0,94,0.00,,,0.00,0,Wunderground v.1.15,2013-01-19 03:25:00,
2013-01-18 19:30:00,33.9,32.4,30.34,North,11,0.0,2.0,94,0.00,,,0.00,0,Wunderground v.1.15,2013-01-19 03:30:00,
2013-01-18 19:35:00,33.8,32.3,30.34,North,11,1.0,3.0,94,0.00,,,0.00,0,Wunderground v.1.15,2013-01-19 03:35:00,
2013-01-18 19:40:00,33.8,32.3,30.35,North,11,0.0,1.0,94,0.00,,,0.00,0,Wunderground v.1.15,2013-01-19 03:40:00,
2013-01-18 19:45:00,33.8,32.3,30.35,North,11,0.0,2.0,94,0.00,,,0.00,0,Wunderground v.1.15,2013-01-19 03:45:00,
2013-01-18 19:50:00,33.7,32.2,30.35,North,11,2.0,2.0,94,0.00,,,0.00,0,Wunderground v.1.15,2013-01-19 03:50:00,
2013-01-18 19:55:00,33.7,32.2,30.35,North,11,0.0,2.0,94,0.00,,,0.00,0,Wunderground v.1.15,2013-01-19 03:55:00,
2013-01-18 20:00:00,33.6,32.1,30.35,North,11,2.0,2.0,94,0.00,,,0.00,0,Wunderground v.1.15,2013-01-19 04:00:00,
2013-01-18 20:05:00,33.6,32.1,30.35,North,11,0.0,2.0,94,0.00,,,0.00,0,Wunderground v.1.15,2013-01-19 04:05:00,
2013-01-18 20:10:00,33.5,32.0,30.35,NNE,13,1.0,2.0,94,0.00,,,0.00,0,Wunderground v.1.15,2013-01-19 04:10:00,
2013-01-18 20:15:00,33.4,31.9,30.35,ENE,57,0.0,3.0,94,0.00,,,0.00,0,Wunderground v.1.15,2013-01-19 04:15:00,
2013-01-18 20:20:00,33.3,31.8,30.35,ENE,57,0.0,1.0,94,0.00,,,0.00,0,Wunderground v.1.15,2013-01-19 04:20:00,
2013-01-18 20:25:00,33.3,31.8,30.35,ENE,57,1.0,1.0,94,0.00,,,0.00,0,Wunderground v.1.15,2013-01-19 04:25:00,
2013-01-18 20:30:00,33.3,31.8,30.35,ENE,57,0.0,0.0,94,0.00,,,0.00,0,Wunderground v.1.15,2013-01-19 04:30:00,
2013-01-18 20:35:00,33.2,31.7,30.36,ENE,57,1.0,2.0,94,0.00,,,0.00,0,Wunderground v.1.15,2013-01-19 04:35:00,
2013-01-18 20:40:00,33.2,31.7,30.36,ENE,57,1.0,1.0,94,0.00,,,0.00,0,Wunderground v.1.15,2013-01-19 04:40:00,
2013-01-18 20:45:00,33.3,31.8,30.36,ENE,61,2.0,2.0,94,0.00,,,0.00,0,Wunderground v.1.15,2013-01-19 04:45:00,
2013-01-18 20:50:00,33.4,31.9,30.36,ENE,70,2.0,2.0,94,0.00,,,0.00,0,Wunderground v.1.15,2013-01-19 04:50:00,
2013-01-18 20:55:00,33.4,31.9,30.36,ENE,70,1.0,3.0,94,0.00,,,0.00,0,Wunderground v.1.15,2013-01-19 04:55:00,
2013-01-18 21:01:00,33.3,31.8,30.36,ENE,72,2.0,2.0,94,0.00,,,0.00,0,Wunderground v.1.15,2013-01-19 05:01:00,
2013-01-18 21:02:00,33.3,31.8,30.36,ENE,72,2.0,2.0,94,0.00,,,0.00,0,Wunderground v.1.15,2013-01-19 05:02:00,
2013-01-18 21:03:00,33.3,31.8,30.37,ENE,73,1.0,2.0,94,0.00,,,0.00,0,Wunderground v.1.15,2013-01-19 05:03:00,
2013-01-18 21:08:00,33.2,31.7,30.37,East,82,0.0,6.0,94,0.00,,,0.00,0,Wunderground v.1.15,2013-01-19 05:08:00,
2013-01-18 21:13:00,33.2,31.7,30.37,East,86,2.0,3.0,94,0.00,,,0.00,0,Wunderground v.1.15,2013-01-19 05:13:00,
2013-01-18 21:18:00,33.1,31.6,30.37,East,98,2.0,5.0,94,0.00,,,0.00,0,Wunderground v.1.15,2013-01-19 05:18:00,
2013-01-18 21:23:00,33.0,31.5,30.37,East,98,0.0,3.0,94,0.00,,,0.00,0,Wunderground v.1.15,2013-01-19 05:23:00,
2013-01-18 21:28:00,32.9,31.4,30.37,ESE,107,1.0,4.0,94,0.00,,,0.00,0,Wunderground v.1.15,2013-01-19 05:28:00,
2013-01-18 21:33:00,32.8,31.3,30.37,ESE,111,1.0,4.0,94,0.00,,,0.00,0,Wunderground v.1.15,2013-01-19 05:33:00,
2013-01-18 21:38:00,32.7,31.2,30.37,ESE,111,3.0,5.0,94,0.00,,,0.00,0,Wunderground v.1.15,2013-01-19 05:38:00,
2013-01-18 21:43:00,32.6,31.1,30.37,ESE,111,3.0,5.0,94,0.00,,,0.00,0,Wunderground v.1.15,2013-01-19 05:43:00,
2013-01-18 21:48:00,32.5,31.2,30.37,ESE,109,1.0,5.0,95,0.00,,,0.00,0,Wunderground v.1.15,2013-01-19 05:48:00,
2013-01-18 21:53:00,32.6,31.3,30.37,ESE,110,1.0,4.0,95,0.00,,,0.00,0,Wunderground v.1.15,2013-01-19 05:53:00,
2013-01-18 21:58:00,32.6,31.3,30.38,ESE,111,1.0,4.0,95,0.00,,,0.00,0,Wunderground v.1.15,2013-01-19 05:58:00,
2013-01-18 22:03:00,32.7,31.4,30.38,ESE,111,1.0,3.0,95,0.00,,,0.00,0,Wunderground v.1.15,2013-01-19 06:03:00,
2013-01-18 22:08:00,32.8,31.5,30.38,ESE,111,0.0,4.0,95,0.00,,,0.00,0,Wunderground v.1.15,2013-01-19 06:08:00,
2013-01-18 22:13:00,32.8,31.5,30.38,ESE,110,1.0,3.0,95,0.00,,,0.00,0,Wunderground v.1.15,2013-01-19 06:13:00,
2013-01-18 22:18:00,32.9,31.6,30.38,ESE,111,1.0,3.0,95,0.00,,,0.00,0,Wunderground v.1.15,2013-01-19 06:18:00,
2013-01-18 22:23:00,33.0,31.7,30.37,ESE,111,0.0,3.0,95,0.00,,,0.00,0,Wunderground v.1.15,2013-01-19 06:23:00,
2013-01-18 22:28:00,33.1,31.8,30.38,ESE,115,0.0,4.0,95,0.00,,,0.00,0,Wunderground v.1.15,2013-01-19 06:28:00,
2013-01-18 22:33:00,33.2,31.9,30.38,ESE,118,0.0,3.0,95,0.00,,,0.00,0,Wunderground v.1.15,2013-01-19 06:33:00,
2013-01-18 22:38:00,33.2,31.9,30.37,ESE,113,0.0,5.0,95,0.00,,,0.00,0,Wunderground v.1.15,2013-01-19 06:38:00,
2013-01-18 22:43:00,33.3,32.0,30.37,ESE,117,0.0,3.0,95,0.00,,,0.00,0,Wunderground v.1.15,2013-01-19 06:43:00,
2013-01-18 22:48:00,33.3,32.0,30.37,ESE,108,3.0,4.0,95,0.00,,,0.00,0,Wunderground v.1.15,2013-01-19 06:48:00,
2013-01-18 22:53:00,33.3,32.0,30.37,ESE,110,2.0,5.0,95,0.00,,,0.00,0,Wunderground v.1.15,2013-01-19 06:53:00,
2013-01-18 22:58:00,33.2,31.9,30.37,East,96,1.0,5.0,95,0.00,,,0.00,0,Wunderground v.1.15,2013-01-19 06:58:00,
2013-01-18 23:03:00,33.2,31.9,30.38,ESE,102,3.0,4.0,95,0.00,,,0.00,0,Wunderground v.1.15,2013-01-19 07:03:00,
2013-01-18 23:08:00,33.1,31.8,30.38,ESE,106,1.0,4.0,95,0.00,,,0.00,0,Wunderground v.1.15,2013-01-19 07:08:00,
2013-01-18 23:13:00,33.1,31.8,30.37,ESE,115,0.0,3.0,95,0.00,,,0.00,0,Wunderground v.1.15,2013-01-19 07:13:00,
2013-01-18 23:18:00,33.0,31.7,30.38,ESE,106,2.0,5.0,95,0.00,,,0.00,0,Wunderground v.1.15,2013-01-19 07:18:00,
2013-01-18 23:23:00,33.0,31.7,30.38,ESE,108,2.0,3.0,95,0.00,,,0.00,0,Wunderground v.1.15,2013-01-19 07:23:00,
2013-01-18 23:28:00,33.0,31.7,30.37,ESE,111,0.0,4.0,95,0.00,,,0.00,0,Wunderground v.1.15,2013-01-19 07:28:00,
2013-01-18 23:33:00,32.9,31.6,30.38,ESE,113,3.0,4.0,95,0.00,,,0.00,0,Wunderground v.1.15,2013-01-19 07:33:00,
2013-01-18 23:38:00,32.9,31.6,30.37,ESE,113,0.0,4.0,95,0.00,,,0.00,0,Wunderground v.1.15,2013-01-19 07:38:00,
2013-01-18 23:43:00,32.9,31.6,30.38,ESE,113,0.0,2.0,95,0.00,,,0.00,0,Wunderground v.1.15,2013-01-19 07:43:00,
2013-01-18 23:48:00,33.0,32.0,30.38,ESE,113,4.0,4.0,96,0.00,,,0.00,0,Wunderground v.1.15,2013-01-19 07:48:00,
2013-01-18 23:53:00,33.0,31.7,30.38,ESE,113,0.0,2.0,95,0.00,,,0.00,0,Wunderground v.1.15,2013-01-19 07:53:00,
2013-01-18 23:58:00,33.0,32.0,30.38,ESE,113,2.0,2.0,96,0.00,,,0.00,0,Wunderground v.1.15,2013-01-19 07:58:00,